Flag for Venezuela Weather past 2 weeks in Caracas, Venezuela

Now
79 °F

Clear.


Feels Like: 81 °F
Forecast: 64 / 80 °F
Wind: 3 mph from Northeast

Location: Caracas / Maiquetia Aerop. Intl. Simon Bolivar

Current Time: Jan 26, 2015 at 2:19:37 AM

Latest Report: Jan 26, 2015 at 1:30 AM


Visibility: 10 mi

Pressure: 29.95 "Hg

Humidity: 74%

Dew point: 70 °F

Location of CaracasLocation

Historic Weather in Caracas — Graph

°F

Caracas temperature yesterday

Maximum temperature yesterday: 90 °F (at 12:30 PM)
Minimum temperature yesterday: 77 °F (at 7:30 AM)
Average temperature yesterday: 83 °F

Past Weeks' High & Low Weather Summary

 TemperatureHumidityPressure
High93 °F (Jan 15, 12:30 PM)94% (Jan 18, 12:30 AM)30.01 "Hg (Jan 18, 12:30 AM)
Low75 °F (Jan 15, 2:30 AM)53% (Jan 15, 12:30 PM)29.89 "Hg (Jan 16, 4:30 PM)
Average83 °F75%29.96 "Hg
* Reported Jan 11 1:30 AM — Jan 26 1:30 AM, Caracas, Weather by CustomWeather, © 2014

Note: Actual official high and low records may vary slightly from our data, if they occured in-between our weather recording intervals... More about our weather records

Advertising

Caracas weather history for previous 24 hours

 ConditionsComfort  
Time TempWeatherWind HumidityBarometerVisibility
1:30 AM
Jan 26
79 °FClear.3 mph74%29.95 "Hg10 mi
12:30 AM79 °FClear.No wind74%29.95 "Hg10 mi
11:30 PM
Jan 25
79 °FClear.1 mph74%29.92 "Hg10 mi
10:30 PM79 °FClear.No wind79%29.95 "Hg10 mi
9:30 PM79 °FClear.3 mph84%29.95 "Hg10 mi
8:30 PM81 °FClear.No wind84%29.92 "Hg10 mi
7:30 PM81 °FClear.2 mph84%29.92 "Hg10 mi
6:30 PM86 °FPassing clouds.2 mph66%29.92 "HgN/A
5:30 PM88 °FPassing clouds.2 mph66%29.89 "HgN/A
4:30 PM88 °FPassing clouds.5 mph66%29.89 "HgN/A
3:30 PM86 °FPassing clouds.3 mph70%29.95 "HgN/A
2:30 PM88 °FPassing clouds.No wind66%29.92 "HgN/A
1:30 PM88 °FPassing clouds.5 mph66%29.92 "HgN/A
12:30 PM90 °FPassing clouds.2 mph63%29.98 "HgN/A
11:30 AM88 °FPassing clouds.5 mph66%29.98 "HgN/A
10:30 AM88 °FPassing clouds.2 mph66%30.01 "HgN/A
9:30 AM86 °FPassing clouds.2 mph59%29.98 "HgN/A
8:30 AM84 °FPassing clouds.No wind58%29.98 "HgN/A
7:30 AM77 °FPassing clouds.No wind74%29.98 "HgN/A
6:30 AM79 °FPassing clouds.3 mph74%29.95 "HgN/A
5:30 AM79 °FPassing clouds.5 mph74%29.95 "HgN/A
4:30 AM79 °FClear.No wind74%29.92 "Hg10 mi
3:30 AM81 °FClear.2 mph70%29.92 "Hg10 mi
2:30 AM81 °FClear.1 mph74%29.92 "Hg10 mi
Weather by CustomWeather, © 2014

See weather overviewHow to use our weather pages